TimeAKST,TemperatureF,Dew PointF,Humidity,Sea Level PressureIn,VisibilityMPH,Wind Direction,Wind SpeedMPH,Gust SpeedMPH,PrecipitationIn,Events,Conditions,WindDirDegrees,DateUTC
12:53 AM,21.9,12.9,68,29.72,10.0,ENE,5.8,-,N/A,,Clear,60,2012-11-24 09:53:00
1:53 AM,19.9,14.0,78,29.73,10.0,NNE,3.5,-,N/A,,Clear,30,2012-11-24 10:53:00
3:53 AM,18.0,14.0,84,29.74,10.0,Calm,Calm,-,N/A,,Clear,0,2012-11-24 12:53:00
4:53 AM,16.0,12.0,84,29.75,10.0,ENE,3.5,-,0.00,,Clear,60,2012-11-24 13:53:00
5:53 AM,19.9,12.9,74,29.75,10.0,North,3.5,-,N/A,,Clear,10,2012-11-24 14:53:00
6:53 AM,21.0,12.0,68,29.75,10.0,ENE,8.1,-,N/A,,Clear,60,2012-11-24 15:53:00
7:53 AM,21.0,10.9,65,29.76,10.0,NE,4.6,-,N/A,,Clear,50,2012-11-24 16:53:00
8:53 AM,21.9,10.9,63,29.77,10.0,ENE,5.8,-,N/A,,Clear,60,2012-11-24 17:53:00
9:53 AM,21.0,10.0,63,29.78,10.0,NE,9.2,-,N/A,,Partly Cloudy,50,2012-11-24 18:53:00
10:53 AM,25.0,12.9,60,29.80,10.0,NE,8.1,-,N/A,,Clear,50,2012-11-24 19:53:00
11:53 AM,28.0,14.0,56,29.80,10.0,NE,8.1,-,N/A,,Clear,40,2012-11-24 20:53:00
12:53 PM,28.0,16.0,61,29.81,10.0,ENE,11.5,-,N/A,,Scattered Clouds,70,2012-11-24 21:53:00
1:53 PM,28.9,16.0,58,29.81,10.0,ENE,5.8,-,N/A,,Clear,70,2012-11-24 22:53:00
2:53 PM,28.9,17.1,61,29.82,10.0,NE,5.8,-,N/A,,Overcast,50,2012-11-24 23:53:00
3:53 PM,28.0,16.0,61,29.83,10.0,ENE,6.9,-,N/A,,Scattered Clouds,60,2012-11-25 00:53:00
4:53 PM,26.1,16.0,66,29.85,10.0,Calm,Calm,-,N/A,,Mostly Cloudy,0,2012-11-25 01:53:00
5:53 PM,26.1,15.1,63,29.87,10.0,ENE,5.8,-,N/A,,Overcast,60,2012-11-25 02:53:00
6:53 PM,26.1,14.0,60,29.89,10.0,ENE,5.8,-,N/A,,Overcast,60,2012-11-25 03:53:00
7:53 PM,26.1,14.0,60,29.91,10.0,ENE,8.1,-,N/A,,Overcast,60,2012-11-25 04:53:00
8:53 PM,25.0,14.0,63,29.92,10.0,NE,4.6,-,N/A,,Overcast,50,2012-11-25 05:53:00
9:53 PM,25.0,14.0,63,29.95,10.0,NE,3.5,-,N/A,,Overcast,50,2012-11-25 06:53:00
10:53 PM,25.0,15.1,66,29.96,10.0,ENE,3.5,-,N/A,,Overcast,70,2012-11-25 07:53:00
11:53 PM,25.0,15.1,66,29.98,10.0,NE,4.6,-,N/A,,Overcast,50,2012-11-25 08:53:00